Orbital elements:
2012 JP4 Earth MOID = 0.0244 AU
Epoch 2012 Mar. 14.0 TT = JDT 2456000.5 MPC
M 359.48234 (2000.0) P Q
n 0.43778287 Peri. 280.10620 -0.83513001 -0.51474021
a 1.7177642 Node 229.20939 +0.54881467 -0.80339520
e 0.5656435 Incl. 14.83990 -0.03688257 -0.29933037
P 2.25 H 25.1 G 0.15 U 8